STARLINK-36094 (66851 NORAD) Tracking and Keplerian Element Data

This shows tracking and keplerian element data for the satellite.

Feedback or suggestion? Click here.




ElementValue
Catalog66851
NameSTARLINK-36094
Epoch Orbit260
Epoch Day354.25003472
Epoch Year2025
RAAN76.377
Inclination43.0009
Eccentricity9.36E-05
Argument of Perigee259.4513
Mean Anonmoly232.4489
Mean Motion15.75476274
Decay Rate-0.017606
L11 66851U 25281D 25354.25003472 -.01760600 00000+0 -12785-1 0 9991
L22 66851 43.0009 76.3770 0000936 259.4513 232.4489 15.75476274 2609



Live tracking and technical data element details for STARLINK-36094 (NORAD 66851). STARLINK-36094 can be tracked NOW for your location showing map with azimuth and elevation plus other details from your city location.







IsCatalogInMostPopularTable: catalog: 66851, numindb: 12
Update: records affected: 1



GetName: 66851 STARLINK-36094

Hit Count: updated at: Wed, 11 Feb 2026 15:18:55 GMT